| time (UTC) | temp F | wind direction | speed MPH | gust MPH | rain 1hr in | rain 24hr in | rain mn in | humidity % | barometer mb |
| 20260504130554 | 58 | 360 | 0.0 | 3.0 | 0.00 | 0.00 | 0.00 | 65 | 1010.0 |
| 20260504110518 | 49 | 360 | 0.0 | 0.0 | 0.00 | 0.00 | 0.00 | 74 | 1010.1 |
| 20260504100510 | 48 | 360 | 0.0 | 0.0 | 0.00 | 0.00 | 0.00 | 73 | 1010.4 |
| 20260504082001 | 47 | 360 | 0.0 | 0.0 | 0.00 | 0.00 | 0.00 | 75 | 1011.5 |
| 20260504081600 | 47 | 360 | 0.0 | 0.0 | 0.00 | 0.00 | 0.00 | 75 | 1011.5 |
| 20260504081100 | 47 | 360 | 0.0 | 0.0 | 0.00 | 0.00 | 0.00 | 75 | 1011.6 |
| 20260504080559 | 47 | 360 | 0.0 | 0.0 | 0.00 | 0.00 | 0.00 | 75 | 1011.6 |
| 20260504050537 | 50 | 360 | 0.0 | 0.0 | 0.00 | 0.00 | 0.00 | 70 | 1013.6 |
| 20260504045535 | 50 | 360 | 0.0 | 0.0 | 0.00 | 0.00 | 0.00 | 70 | 1013.7 |
| 20260504045035 | 50 | 360 | 0.0 | 0.0 | 0.00 | 0.00 | 0.00 | 69 | 1013.8 |
| 20260504044540 | 50 | 360 | 0.0 | 0.0 | 0.00 | 0.00 | 0.00 | 70 | 1013.7 |
| 20260504044034 | 50 | 360 | 0.0 | 0.0 | 0.00 | 0.00 | 0.00 | 70 | 1013.8 |
| 20260504043534 | 50 | 360 | 0.0 | 0.0 | 0.00 | 0.00 | 0.00 | 70 | 1013.9 |
| 20260504043034 | 50 | 360 | 0.0 | 0.0 | 0.00 | 0.00 | 0.00 | 70 | 1013.9 |
| 20260504042533 | 50 | 360 | 0.0 | 0.0 | 0.00 | 0.00 | 0.00 | 70 | 1013.9 |
| 20260504042035 | 50 | 360 | 0.0 | 0.0 | 0.00 | 0.00 | 0.00 | 70 | 1014.0 |
| 20260504041532 | 50 | 360 | 0.0 | 0.0 | 0.00 | 0.00 | 0.00 | 71 | 1014.0 |
| 20260504041031 | 50 | 360 | 0.0 | 0.0 | 0.00 | 0.00 | 0.00 | 71 | 1014.0 |
| 20260504040530 | 50 | 360 | 0.0 | 0.0 | 0.00 | 0.00 | 0.00 | 71 | 1014.1 |
| 20260504040029 | 49 | 360 | 0.0 | 0.0 | 0.00 | 0.00 | 0.00 | 72 | 1014.1 |
| 20260504035530 | 49 | 360 | 0.0 | 1.0 | 0.00 | 0.00 | 0.00 | 72 | 1014.0 |
| 20260504035028 | 49 | 360 | 0.0 | 1.0 | 0.00 | 0.00 | 0.00 | 73 | 1014.1 |
| 20260504034529 | 49 | 360 | 0.0 | 0.0 | 0.00 | 0.00 | 0.00 | 73 | 1014.1 |
| 20260504034027 | 49 | 360 | 0.0 | 2.0 | 0.00 | 0.00 | 0.00 | 74 | 1014.2 |
| 20260504033529 | 49 | 360 | 0.0 | 2.0 | 0.00 | 0.00 | 0.00 | 74 | 1014.3 |
| 20260504033026 | 49 | 360 | 0.0 | 0.0 | 0.00 | 0.00 | 0.00 | 75 | 1014.3 |
| 20260504032526 | 49 | 360 | 0.0 | 3.0 | 0.00 | 0.00 | 0.00 | 77 | 1014.4 |
| 20260504032026 | 48 | 360 | 0.0 | 3.0 | 0.00 | 0.00 | 0.00 | 77 | 1014.4 |
| 20260504031525 | 48 | 360 | 0.0 | 0.0 | 0.00 | 0.00 | 0.00 | 78 | 1014.5 |
| 20260504031025 | 48 | 360 | 0.0 | 0.0 | 0.00 | 0.00 | 0.00 | 79 | 1014.5 |
| 20260504030524 | 48 | 360 | 0.0 | 0.0 | 0.00 | 0.00 | 0.00 | 79 | 1014.5 |
| 20260504030036 | 48 | 360 | 0.0 | 0.0 | 0.00 | 0.00 | 0.00 | 79 | 1014.7 |
| 20260504025524 | 48 | 360 | 0.0 | 1.0 | 0.00 | 0.00 | 0.00 | 79 | 1014.7 |
| 20260504025024 | 48 | 360 | 0.0 | 1.0 | 0.00 | 0.00 | 0.00 | 78 | 1014.7 |
| 20260504024524 | 48 | 360 | 0.0 | 1.0 | 0.00 | 0.00 | 0.00 | 78 | 1014.8 |
| 20260504024026 | 48 | 360 | 0.0 | 2.0 | 0.00 | 0.00 | 0.00 | 79 | 1014.7 |
| 20260504023523 | 48 | 360 | 0.0 | 0.0 | 0.00 | 0.00 | 0.00 | 79 | 1014.7 |
| 20260504023023 | 48 | 360 | 0.0 | 3.0 | 0.00 | 0.00 | 0.00 | 79 | 1014.7 |
| 20260504022523 | 48 | 360 | 0.0 | 3.0 | 0.00 | 0.00 | 0.00 | 80 | 1014.8 |
| 20260504022025 | 48 | 360 | 0.0 | 0.0 | 0.00 | 0.00 | 0.00 | 80 | 1014.9 |
| 20260504021527 | 47 | 360 | 0.0 | 0.0 | 0.00 | 0.00 | 0.00 | 80 | 1014.8 |
| 20260504021021 | 47 | 360 | 0.0 | 0.0 | 0.00 | 0.00 | 0.00 | 80 | 1015.0 |
| 20260504020521 | 47 | 360 | 0.0 | 0.0 | 0.00 | 0.00 | 0.00 | 81 | 1015.0 |
| 20260504020021 | 47 | 360 | 0.0 | 0.0 | 0.00 | 0.00 | 0.00 | 80 | 1015.0 |
| 20260504015521 | 47 | 360 | 0.0 | 0.0 | 0.00 | 0.00 | 0.00 | 80 | 1015.1 |
| 20260504015025 | 47 | 360 | 0.0 | 0.0 | 0.00 | 0.00 | 0.00 | 80 | 1015.0 |
| 20260504014521 | 47 | 360 | 0.0 | 0.0 | 0.00 | 0.00 | 0.00 | 79 | 1015.0 |
| 20260504014024 | 47 | 360 | 0.0 | 0.0 | 0.00 | 0.00 | 0.00 | 79 | 1015.0 |
| 20260504013523 | 47 | 360 | 0.0 | 1.0 | 0.00 | 0.00 | 0.00 | 79 | 1015.0 |
| 20260504013020 | 47 | 360 | 0.0 | 2.0 | 0.00 | 0.00 | 0.00 | 79 | 1014.9 |
| 20260504012520 | 47 | 360 | 0.0 | 2.0 | 0.00 | 0.00 | 0.00 | 79 | 1014.9 |
| 20260504012020 | 47 | 360 | 0.0 | 0.0 | 0.00 | 0.00 | 0.00 | 79 | 1015.0 |
| 20260504011519 | 47 | 360 | 0.0 | 0.0 | 0.00 | 0.00 | 0.00 | 78 | 1015.0 |
| 20260504011018 | 47 | 360 | 0.0 | 3.0 | 0.00 | 0.00 | 0.00 | 78 | 1014.8 |
| 20260504010518 | 47 | 360 | 0.0 | 3.0 | 0.00 | 0.00 | 0.00 | 78 | 1014.8 |
| 20260504010018 | 47 | 360 | 0.0 | 1.0 | 0.00 | 0.00 | 0.00 | 78 | 1014.9 |
| 20260504005520 | 48 | 360 | 0.0 | 1.0 | 0.00 | 0.00 | 0.00 | 78 | 1014.9 |
| 20260504005018 | 48 | 360 | 0.0 | 0.0 | 0.00 | 0.00 | 0.00 | 78 | 1014.9 |
| 20260504004522 | 48 | 360 | 0.0 | 0.0 | 0.00 | 0.00 | 0.00 | 78 | 1014.9 |
| 20260504004017 | 48 | 360 | 0.0 | 0.0 | 0.00 | 0.00 | 0.00 | 78 | 1014.8 |
| 20260504003518 | 48 | 360 | 0.0 | 0.0 | 0.00 | 0.00 | 0.00 | 78 | 1014.8 |
| 20260504003017 | 48 | 360 | 0.0 | 0.0 | 0.00 | 0.00 | 0.00 | 78 | 1014.8 |
| 20260504002516 | 48 | 360 | 0.0 | 0.0 | 0.00 | 0.00 | 0.00 | 78 | 1014.9 |
| 20260504002016 | 48 | 360 | 0.0 | 0.0 | 0.00 | 0.00 | 0.00 | 78 | 1015.0 |
| 20260504001516 | 48 | 360 | 0.0 | 0.0 | 0.00 | 0.00 | 0.00 | 78 | 1015.0 |
| 20260504001016 | 48 | 360 | 0.0 | 0.0 | 0.00 | 0.00 | 0.00 | 78 | 1015.0 |
| 20260504000515 | 48 | 360 | 0.0 | 0.0 | 0.00 | 0.00 | 0.00 | 78 | 1014.9 |
| 20260504000014 | 48 | 360 | 0.0 | 0.0 | 0.00 | 0.00 | 0.00 | 77 | 1015.1 |
| 20260503235513 | 48 | 360 | 0.0 | 0.0 | 0.00 | 0.00 | 0.00 | 77 | 1015.3 |
| 20260503235013 | 48 | 360 | 0.0 | 0.0 | 0.00 | 0.00 | 0.00 | 77 | 1015.3 |
| 20260503234525 | 48 | 360 | 0.0 | 0.0 | 0.00 | 0.00 | 0.00 | 77 | 1015.2 |
| 20260503234015 | 48 | 360 | 0.0 | 0.0 | 0.00 | 0.00 | 0.00 | 77 | 1015.2 |
| 20260503233513 | 48 | 360 | 0.0 | 0.0 | 0.00 | 0.00 | 0.00 | 76 | 1015.3 |
| 20260503233011 | 48 | 360 | 0.0 | 0.0 | 0.00 | 0.00 | 0.00 | 76 | 1015.4 |
| 20260503232511 | 48 | 360 | 0.0 | 1.0 | 0.00 | 0.00 | 0.00 | 75 | 1015.7 |
| 20260503232010 | 48 | 360 | 0.0 | 1.0 | 0.00 | 0.00 | 0.00 | 75 | 1015.8 |
| 20260503231510 | 49 | 360 | 0.0 | 9.0 | 0.00 | 0.00 | 0.00 | 74 | 1016.0 |
| 20260503231015 | 49 | 360 | 0.0 | 11.0 | 0.00 | 0.00 | 0.00 | 74 | 1016.3 |
| 20260503230515 | 49 | 360 | 1.0 | 16.0 | 0.00 | 0.00 | 0.00 | 73 | 1016.5 |
| 20260503230010 | 50 | 360 | 9.0 | 21.0 | 0.00 | 0.00 | 0.00 | 71 | 1016.5 |
| 20260503225512 | 50 | 360 | 11.0 | 21.0 | 0.00 | 0.00 | 0.00 | 69 | 1016.4 |
| 20260503225009 | 50 | 360 | 9.0 | 22.0 | 0.00 | 0.00 | 0.00 | 67 | 1016.4 |
| 20260503224512 | 51 | 360 | 11.0 | 19.0 | 0.00 | 0.00 | 0.00 | 66 | 1016.3 |
| 20260503224007 | 51 | 360 | 11.0 | 23.0 | 0.00 | 0.00 | 0.00 | 65 | 1016.3 |
| 20260503223505 | 51 | 360 | 12.0 | 23.0 | 0.00 | 0.00 | 0.00 | 64 | 1016.4 |
| 20260503223004 | 52 | 360 | 10.0 | 18.0 | 0.00 | 0.00 | 0.00 | 61 | 1016.4 |
| 20260503222503 | 53 | 360 | 10.0 | 26.0 | 0.00 | 0.00 | 0.00 | 59 | 1016.3 |
| 20260503222002 | 54 | 360 | 11.0 | 21.0 | 0.00 | 0.00 | 0.00 | 56 | 1016.1 |
| 20260503221501 | 54 | 360 | 9.0 | 23.0 | 0.00 | 0.00 | 0.00 | 55 | 1016.1 |
| 20260503221100 | 55 | 360 | 13.0 | 23.0 | 0.00 | 0.00 | 0.00 | 52 | 1016.0 |
| 20260503220559 | 56 | 360 | 12.0 | 19.0 | 0.00 | 0.00 | 0.00 | 49 | 1015.8 |
| 20260503220104 | 57 | 360 | 7.0 | 18.0 | 0.00 | 0.00 | 0.00 | 44 | 1015.7 |
| 20260503215556 | 57 | 360 | 0.0 | 11.0 | 0.00 | 0.00 | 0.00 | 44 | 1015.7 |
| 20260503215056 | 57 | 360 | 0.0 | 13.0 | 0.00 | 0.00 | 0.00 | 47 | 1015.6 |
| 20260503214557 | 57 | 360 | 2.0 | 18.0 | 0.00 | 0.00 | 0.00 | 45 | 1015.7 |
| 20260503214055 | 57 | 360 | 2.0 | 18.0 | 0.00 | 0.00 | 0.00 | 46 | 1015.7 |
| 20260503213555 | 58 | 360 | 2.0 | 12.0 | 0.00 | 0.00 | 0.00 | 46 | 1015.6 |
| 20260503213107 | 58 | 360 | 2.0 | 16.0 | 0.00 | 0.00 | 0.00 | 47 | 1015.6 |
| 20260503212558 | 58 | 360 | 4.0 | 17.0 | 0.00 | 0.00 | 0.00 | 44 | 1015.6 |
| 20260503212053 | 58 | 360 | 5.0 | 16.0 | 0.00 | 0.00 | 0.00 | 43 | 1015.7 |
| 20260503211553 | 58 | 360 | 3.0 | 12.0 | 0.00 | 0.00 | 0.00 | 43 | 1015.7 |
| 20260503211052 | 58 | 360 | 3.0 | 14.0 | 0.00 | 0.00 | 0.00 | 43 | 1015.8 |
| 20260503210552 | 58 | 360 | 4.0 | 15.0 | 0.00 | 0.00 | 0.00 | 42 | 1015.9 |
| 20260503205552 | 58 | 360 | 6.0 | 23.0 | 0.00 | 0.00 | 0.00 | 41 | 1015.8 |
| 20260503205051 | 58 | 360 | 4.0 | 23.0 | 0.00 | 0.00 | 0.00 | 43 | 1015.9 |
| 20260503204553 | 58 | 360 | 7.0 | 18.0 | 0.00 | 0.00 | 0.00 | 43 | 1016.1 |
| 20260503204053 | 59 | 360 | 0.0 | 11.0 | 0.00 | 0.00 | 0.00 | 44 | 1016.2 |
| 20260503203550 | 59 | 360 | 3.0 | 15.0 | 0.00 | 0.00 | 0.00 | 42 | 1016.2 |
| 20260503203055 | 59 | 360 | 6.0 | 16.0 | 0.00 | 0.00 | 0.00 | 41 | 1016.3 |
| 20260503202550 | 59 | 360 | 8.0 | 16.0 | 0.00 | 0.00 | 0.00 | 43 | 1016.4 |
| 20260503202049 | 59 | 360 | 1.0 | 15.0 | 0.00 | 0.00 | 0.00 | 44 | 1016.4 |
| 20260503201548 | 59 | 360 | 5.0 | 15.0 | 0.00 | 0.00 | 0.00 | 41 | 1016.4 |
| 20260503201048 | 59 | 360 | 3.0 | 14.0 | 0.00 | 0.00 | 0.00 | 44 | 1016.5 |
| 20260503200552 | 60 | 360 | 4.0 | 13.0 | 0.00 | 0.00 | 0.00 | 44 | 1016.5 |
| 20260503200050 | 60 | 360 | 5.0 | 15.0 | 0.00 | 0.00 | 0.00 | 43 | 1016.6 |
| 20260503195548 | 60 | 360 | 1.0 | 15.0 | 0.00 | 0.00 | 0.00 | 43 | 1016.5 |
| 20260503195046 | 60 | 360 | 0.0 | 11.0 | 0.00 | 0.00 | 0.00 | 45 | 1016.5 |
| 20260503194546 | 60 | 360 | 3.0 | 18.0 | 0.00 | 0.00 | 0.00 | 43 | 1016.6 |
| 20260503194046 | 60 | 360 | 8.0 | 18.0 | 0.00 | 0.00 | 0.00 | 43 | 1016.7 |
| 20260503193547 | 60 | 360 | 0.0 | 9.0 | 0.00 | 0.00 | 0.00 | 46 | 1016.7 |
| 20260503193049 | 60 | 360 | 0.0 | 1.0 | 0.00 | 0.00 | 0.00 | 45 | 1016.8 |
| 20260503192544 | 60 | 360 | 0.0 | 1.0 | 0.00 | 0.00 | 0.00 | 45 | 1016.8 |
| 20260503192044 | 60 | 360 | 0.0 | 15.0 | 0.00 | 0.00 | 0.00 | 43 | 1016.9 |
| 20260503191543 | 60 | 360 | 4.0 | 15.0 | 0.00 | 0.00 | 0.00 | 44 | 1017.1 |
| 20260503191044 | 60 | 360 | 1.0 | 21.0 | 0.00 | 0.00 | 0.00 | 45 | 1017.2 |
| 20260503190542 | 60 | 360 | 3.0 | 21.0 | 0.00 | 0.00 | 0.00 | 43 | 1017.4 |
| 20260503190047 | 61 | 360 | 6.0 | 19.0 | 0.00 | 0.00 | 0.00 | 40 | 1017.4 |
| 20260503185540 | 61 | 360 | 0.0 | 12.0 | 0.00 | 0.00 | 0.00 | 46 | 1017.3 |
| 20260503185039 | 60 | 360 | 3.0 | 13.0 | 0.00 | 0.00 | 0.00 | 43 | 1017.6 |
| 20260503184549 | 60 | 360 | 3.0 | 11.0 | 0.00 | 0.00 | 0.00 | 45 | 1017.6 |
| 20260503184038 | 60 | 360 | 2.0 | 13.0 | 0.00 | 0.00 | 0.00 | 42 | 1017.7 |
| 20260503183538 | 60 | 360 | 5.0 | 13.0 | 0.00 | 0.00 | 0.00 | 45 | 1017.8 |
| 20260503183052 | 60 | 360 | 6.0 | 14.0 | 0.00 | 0.00 | 0.00 | 43 | 1017.9 |
| 20260503182537 | 60 | 360 | 6.0 | 15.0 | 0.00 | 0.00 | 0.00 | 42 | 1017.9 |
| 20260503182036 | 60 | 360 | 1.0 | 15.0 | 0.00 | 0.00 | 0.00 | 45 | 1018.0 |
| 20260503181539 | 60 | 360 | 0.0 | 17.0 | 0.00 | 0.00 | 0.00 | 47 | 1018.1 |
| 20260503181035 | 61 | 360 | 1.0 | 20.0 | 0.00 | 0.00 | 0.00 | 50 | 1018.0 |
| 20260503180534 | 59 | 360 | 2.0 | 20.0 | 0.00 | 0.00 | 0.00 | 49 | 1018.2 |
| 20260503180034 | 59 | 360 | 5.0 | 14.0 | 0.00 | 0.00 | 0.00 | 44 | 1018.3 |
| 20260503175534 | 59 | 360 | 0.0 | 6.0 | 0.00 | 0.00 | 0.00 | 44 | 1018.3 |
| 20260503175034 | 59 | 360 | 0.0 | 15.0 | 0.00 | 0.00 | 0.00 | 52 | 1018.4 |
| 20260503174533 | 59 | 360 | 3.0 | 15.0 | 0.00 | 0.00 | 0.00 | 45 | 1018.5 |
| 20260503174032 | 59 | 360 | 6.0 | 15.0 | 0.00 | 0.00 | 0.00 | 44 | 1018.6 |
| 20260503173532 | 59 | 360 | 0.0 | 11.0 | 0.00 | 0.00 | 0.00 | 52 | 1018.6 |
| 20260503173031 | 59 | 360 | 2.0 | 13.0 | 0.00 | 0.00 | 0.00 | 47 | 1018.7 |
| 20260503172531 | 59 | 360 | 2.0 | 13.0 | 0.00 | 0.00 | 0.00 | 51 | 1018.8 |
| 20260503172029 | 59 | 360 | 0.0 | 11.0 | 0.00 | 0.00 | 0.00 | 47 | 1018.9 |
| 20260503171528 | 59 | 360 | 1.0 | 12.0 | 0.00 | 0.00 | 0.00 | 45 | 1019.0 |
| 20260503171029 | 59 | 360 | 2.0 | 12.0 | 0.00 | 0.00 | 0.00 | 49 | 1019.0 |
| 20260503170526 | 59 | 360 | 1.0 | 11.0 | 0.00 | 0.00 | 0.00 | 48 | 1019.1 |
| 20260503151003 | 54 | 360 | 5.0 | 18.0 | 0.00 | 0.00 | 0.00 | 53 | 1020.1 |
| 20260503150500 | 54 | 360 | 3.0 | 15.0 | 0.00 | 0.00 | 0.00 | 56 | 1020.1 |